www.pogodaiklimat.ru

Погода и климат >> Архив погоды >> Норвегия >> Svinoy Fyr


ПОГОДА в Svinoy Fyr

  • Прогноз погоды в Svinoy Fyr
  • Монитор погоды в Svinoy Fyr
  • Климат города

АРХИВ ПОГОДЫ в Svinoy Fyr

Время (UTC), дата Ветер
(напр.,м/с)
 
Видим.   Явления Облачность Т
(С)
Тd
(С)
f
(%)
Тe
(С)
Тes
(С)
Комфортность P
(гПа)
Po
(гПа)
Тmin
(С)
Tmax
(С)
R
(мм)
R24
(мм)
S
(см)
16 17.09 ЮЗ 14-17
{19}
н/о н/о +13.0 +10.2 83 +9 +9 1004.4 1000.0
17 17.09 ЮЗ 15-18
{18}
н/о н/о +13.2 +10.2 82 +9 +9 1004.0 999.6
18 17.09 ЮЗ 15-17
{20}
н/о н/о +13.2 +10.2 82 +9 +9 1004.2 999.8 +10.2 +13.2
19 17.09 ЮЗ 16-19
{19}
н/о н/о +13.2 +10.4 83 +9 +9 1003.4 999.0
20 17.09 ЮЗ 16-19
{21}
н/о н/о +13.2 +10.0 81 +9 +9 1003.5 999.1
21 17.09 Ю 9-11
{21}
н/о н/о +12.5 +9.2 80 +9 +9 1004.0 999.6
22 17.09 Ю 5-9
{11}
н/о н/о +11.7 +10.0 89 +9 +9 1003.4 999.0
23 17.09 Ю 5-8
{8}
н/о н/о +11.8 +10.2 90 +9 +9 1002.7 998.3
00 18.09 ЮВ 6-7
{21}
н/о н/о +11.6 +10.0 90 +9 +9 1002.0 997.6
01 18.09 ЮВ 6-7
{8}
н/о н/о +12.0 +9.7 86 +9 +9 1000.7 996.3
02 18.09 ЮВ 5-7
{7}
н/о н/о +12.2 +9.6 84 +10 +10 999.5 995.1
03 18.09 ЮВ 4-5
{7}
н/о н/о +12.3 +10.4 88 +10 +10 997.9 993.5
04 18.09 ЮВ 6-7
{7}
н/о н/о +11.9 +11.0 94 +9 +9 996.4 992.0
05 18.09 ЮВ 6-7
{8}
н/о н/о +12.2 +11.9 98 +9 +9 995.3 990.9
06 18.09 Ю 9-18
{18}
н/о н/о +13.9 +13.6 98 +11 +11 994.6 990.2 +11.5 +13.9
07 18.09 ЮЗ 21-26
{28}
н/о н/о +14.9 +14.6 98 +11 +11 992.7 988.4
08 18.09 ЮЗ 24-27
{28}
н/о н/о +14.6 +14.3 98 +10 +10 992.9 988.5
09 18.09 ЮЗ 20-25
{26}
н/о н/о +14.9 +14.6 98 +11 +11 993.8 989.4
10 18.09 ЮЗ 19-22
{25}
н/о н/о +14.8 +14.5 98 +11 +11 993.9 989.5
11 18.09 ЮЗ 16-19
{24}
н/о н/о +14.5 +14.2 98 +11 +11 994.5 990.1
12 18.09 ЮЗ 11-15
{28}
н/о н/о +16.4 +12.8 79 +14 +14 994.9 990.6
13 18.09 ЮЗ 10-15
{17}
н/о н/о +17.3 +11.8 70 +16 +16 995.1 990.8
14 18.09 ЮЗ 8-10
{13}
н/о н/о +17.6 +11.9 69 +17 +17 994.6 990.3
15 18.09 ЮЗ 9-10
{10}
н/о н/о +16.6 +12.8 78 +15 +15 993.4 989.1
16 18.09 З 5-7
{11}
н/о н/о +15.5 +13.7 89 +14 +14 992.3 988.0
17 18.09 З 7-13
{13}
н/о н/о +15.9 +13.2 84 +14 +14 991.9 987.6
18 18.09 Ю 8-12
{19}
н/о н/о +15.4 +14.1 92 +13 +13 991.9 987.6 +13.9 +18.0
19 18.09 В 9-10
{10}
н/о н/о +14.2 +13.9 98 +11 +11 991.6 987.2
20 18.09 ЮВ 6-7
{10}
н/о н/о +14.0 +13.7 98 +12 +12 991.3 986.9
21 18.09 ЮЗ 15-17
{17}
н/о н/о +14.2 +13.9 98 +11 +11 990.1 985.8
22 18.09 ЮЗ 14-17
{19}
н/о н/о +13.7 +13.4 98 +10 +10 990.4 986.0
23 18.09 ЮЗ 15-18
{19}
н/о н/о +13.8 +13.5 98 +10 +10 990.5 986.1
00 19.09 ЮЗ 19-23
{23}
н/о н/о +13.8 +13.5 98 +10 +10 990.2 985.8
01 19.09 ЮЗ 12-15
{22}
н/о н/о +14.0 +13.7 98 +11 +11 991.8 987.4
02 19.09 ЮЗ 19-23
{23}
н/о н/о +14.3 +14.0 98 +10 +10 991.0 986.7
03 19.09 ЮЗ 21-24
{26}
н/о н/о +13.7 +13.4 98 +9 +9 991.2 986.8
04 19.09 ЮЗ 17 н/о н/о +14.1 +13.0 93 +10 +10 992.9 988.5
05 19.09 ЮЗ 15-18
{28}
н/о н/о +14.6 +10.6 77 +11 +11 993.2 988.8
06 19.09 Ю 20-11
{28}
н/о н/о +13.8 +11.7 87 +11 +11 993.7 989.3 +13.5 +15.4
07 19.09 ЮЗ 11-15
{15}
н/о н/о +15.1 +10.9 76 +13 +13 993.0 988.7
08 19.09 ЮЗ 17-27
{27}
н/о н/о +15.8 +8.6 62 +13 +13 992.7 988.4
09 19.09 ЮЗ 18-25
{31}
н/о н/о +15.4 +8.6 64 +12 +12 993.1 988.8
10 19.09 ЮЗ 26-34
{34}
н/о н/о +12.4 +9.6 83 +7 +7 992.0 987.6
11 19.09 ЮЗ 21-26
{31}
н/о н/о +13.8 +9.1 73 +10 +10 993.5 989.1
12 19.09 ЮЗ 19-22
{34}
н/о н/о +13.8 +8.9 72 +10 +10 994.4 990.0
13 19.09 Ю 14-20
{21}
н/о н/о +14.9 +8.2 64 +12 +12 994.7 990.3
14 19.09 ЮЗ 14-20
{20}
н/о н/о +15.2 +7.7 61 +12 +12 993.9 989.6
15 19.09 Ю 6-9
{17}
н/о н/о +14.8 +7.6 62 +13 +13 992.3 988.0
16 19.09 Ю 4-11
{11}
н/о н/о +15.3 +6.3 55 +14 +14 989.6 985.3
17 19.09 Ю 7-11
{17}
н/о н/о +14.2 +6.1 58 +12 +12 987.5 983.2
18 19.09 ЮВ 12-15
{21}
н/о н/о +13.3 +7.5 68 +10 +10 984.0 979.7 +11.3 +15.9
19 19.09 ЮВ 13-18
{20}
н/о н/о +14.0 +8.8 71 +11 +11 980.9 976.6
20 19.09 ЮЗ 17-23
{28}
н/о н/о +14.2 +8.2 67 +11 +11 980.0 975.7
21 19.09 Ю 19-25
{30}
н/о н/о +12.8 +9.8 82 +8 +8 978.8 974.5
22 19.09 ЮЗ 22-30
{32}
н/о н/о +12.5 +9.3 81 +8 +8 978.6 974.3
23 19.09 ЮЗ 27-38
{38}
н/о н/о +11.4 +10.8 96 +5 +5 976.1 971.8
00 20.09 ЮЗ 23-42
{43}
н/о н/о +12.1 +9.7 85 +6 +6 975.8 971.5
01 20.09 ЮЗ 32-42
{45}
н/о н/о +12.3 +9.3 82 +6 +6 978.5 974.2
02 20.09 ЮЗ 28-36
{42}
н/о н/о +10.8 +8.7 87 +4 +4 981.2 976.8
03 20.09 ЮЗ 24-28
{33}
н/о н/о +11.2 +9.3 88 +5 +5 982.8 978.4
04 20.09 ЮЗ 25-31
{31}
н/о н/о +11.2 +8.1 81 +5 +5 983.0 978.6
05 20.09 ЮЗ 24-29
{33}
н/о н/о +10.1 +9.2 94 +4 +4 984.3 979.9
06 20.09 ЮЗ 25-31
{45}
н/о н/о +10.2 +9.8 97 +4 +4 985.5 981.1 +9.4 +14.7
07 20.09 ЮЗ 26-34
{36}
н/о н/о +9.2 +8.9 98 +2 +2 986.2 981.8
08 20.09 ЮЗ 28-34
{35}
н/о н/о +11.8 +7.7 76 +6 +6 985.5 981.1
09 20.09 ЮЗ 29-35
{36}
н/о н/о +11.1 +8.2 82 +5 +5 985.3 980.9
10 20.09 ЮЗ 24-30
{36}
н/о н/о +11.0 +9.3 89 +5 +5 987.3 982.9
11 20.09 ЮЗ 27-31
{35}
н/о н/о +11.6 +8.3 80 +6 +6 987.7 983.3
12 20.09 ЮЗ 25-30
{36}
н/о н/о +12.2 +8.1 76 +7 +7 988.8 984.4
13 20.09 ЮЗ 26-35
{35}
н/о н/о +12.1 +8.0 76 +7 +7 989.8 985.4
14 20.09 ЮЗ 24-31
{34}
н/о н/о +12.8 +6.8 67 +8 +8 990.8 986.4
15 20.09 ЮЗ 25-31
{32}
н/о н/о +12.4 +6.9 69 +7 +7 990.1 985.7
16 20.09 ЮЗ 19-28
{30}
н/о н/о +12.5 +6.6 67 +8 +8 990.5 986.1
17 20.09 ЮЗ 17-21
{27}
н/о н/о +11.8 +7.5 75 +7 +7 990.3 985.9
18 20.09 Ю 20-27
{35}
н/о н/о +12.4 +8.3 76 +8 +8 988.9 984.5 +8.4 +12.8
19 20.09 ЮЗ 27-33
{37}
н/о н/о +11.6 +10.8 95 +6 +6 987.7 983.3
20 20.09 З 19-25
{33}
н/о н/о +10.9 +8.5 85 +5 +5 991.6 987.2
21 20.09 ЮЗ 19-23
{25}
н/о н/о +11.5 +7.2 75 +6 +6 992.7 988.3
22 20.09 ЮЗ 20-23
{23}
н/о н/о +11.6 +6.5 71 +6 +6 993.0 988.6
23 20.09 ЮЗ 16-19
{23}
н/о н/о +11.3 +6.5 72 +7 +7 994.2 989.8
00 21.09 ЮЗ 16-20
{37}
н/о н/о +11.6 +6.5 71 +7 +7 994.3 989.9
01 21.09 ЮЗ 14-17
{19}
н/о н/о +11.5 +6.2 70 +7 +7 994.2 989.8
02 21.09 ЮЗ 13-15
{17}
н/о н/о +11.4 +5.3 66 +7 +7 993.8 989.4
03 21.09 ЮЗ 10-13
{16}
н/о н/о +11.3 +7.2 76 +7 +7 993.3 988.9
04 21.09 ЮЗ 10-12
{15}
н/о н/о +11.4 +6.8 73 +8 +8 992.8 988.4
05 21.09 ЮЗ 6-8
{11}
н/о н/о +11.4 +7.3 76 +9 +9 992.0 987.6
06 21.09 Ю 4-6
{19}
н/о н/о +10.1 +8.7 91 +7 +7 991.0 986.6 +10.1 +12.4
07 21.09 В 5-6
{6}
н/о н/о +9.9 +8.7 92 +7 +7 990.0 985.6
08 21.09 В 4-6
{6}
н/о н/о +10.2 +7.5 83 +8 +8 988.9 984.5
09 21.09 СВ 6-8
{8}
н/о н/о +10.6 +8.2 85 +7 +7 987.2 982.8
10 21.09 СВ 8-10
{11}
н/о н/о +10.3 +8.9 91 +6 +6 985.9 981.5
11 21.09 СВ 13-14
{14}
н/о н/о +10.9 +9.3 90 +6 +6 983.8 979.4
12 21.09 СВ 11-12
{15}
н/о н/о +10.8 +7.3 79 +6 +6 982.4 978.0
13 21.09 СВ 12-14
{14}
н/о н/о +11.2 +7.9 80 +7 +7 980.8 976.4
14 21.09 СВ 13-15
{15}
н/о н/о +11.4 +7.9 79 +7 +7 979.5 975.2
15 21.09 СВ 12-15
{20}
н/о н/о +10.6 +8.7 88 +6 +6 977.7 973.4
16 21.09 СВ 18-22
{22}
н/о н/о +10.3 +9.1 92 +5 +5 976.7 972.4
17 21.09 С 18-20
{22}
н/о н/о +9.9 +8.5 91 +4 +4 977.1 972.7
18 21.09 С 16-20
{22}
н/о н/о +9.2 +7.3 88 +3 +3 977.7 973.3 +9.1 +11.5
19 21.09 С 15-18
{20}
н/о н/о +9.3 +7.4 88 +4 +4 978.8 974.4
20 21.09 С 13-16
{18}
н/о н/о +9.1 +6.6 84 +4 +4 980.1 975.7
21 21.09 СЗ 9-12
{15}
н/о н/о +9.7 +6.8 82 +5 +5 980.9 976.5
22 21.09 З 8-11
{12}
н/о н/о +10.1 +6.8 80 +6 +6 981.8 977.4
23 21.09 З 10-12
{12}
н/о н/о +10.1 +7.7 85 +6 +6 982.3 977.9
00 22.09 З 11-14
{20}
н/о н/о +10.0 +9.1 94 +5 +5 982.4 978.0
01 22.09 СЗ 11-14
{17}
н/о н/о +10.4 +9.3 93 +6 +6 983.4 979.0
02 22.09 -21
{21}
н/о н/о +10.7 +8.5 86 984.4 980.0
03 22.09 З 13-20
{21}
н/о н/о +10.1 +8.5 90 +5 +5 985.3 980.9
04 22.09 З 16-19
{22}
н/о н/о +10.3 +7.7 84 +5 +5 985.5 981.1
05 22.09 З 15-18
{19}
н/о н/о +10.6 +7.8 83 +5 +5 985.6 981.2
06 22.09 З 16
{22}
н/о н/о +10.5 +6.8 78 +5 +5 985.6 981.2 +8.8
07 22.09 З 16-19
{19}
н/о н/о +10.6 +7.1 79 +5 +5 986.3 981.9
08 22.09 З 16-18
{20}
н/о н/о +10.7 +6.7 76 +6 +6 987.0 982.6
09 22.09 З 14-18
{19}
н/о н/о +10.4 +7.8 84 +5 +5 988.2 983.8
10 22.09 З 15-19
{19}
н/о н/о +10.9 +7.2 78 +6 +6 988.3 983.9
11 22.09 З 15-17
{20}
н/о н/о +10.8 +7.7 81 +6 +6 988.9 984.5
12 22.09 З 15-18
{20}
н/о н/о +10.2 +8.1 87 +5 +5 989.4 985.0
13 22.09 З 15-18
{19}
н/о н/о +10.1 +9.2 94 +5 +5 990.1 985.7
14 22.09 З 11-14
{19}
н/о н/о +10.6 +9.8 95 +6 +6 991.4 987.0
15 22.09 З 10-11
{14}
н/о н/о +10.4 +9.0 91 +6 +6 992.3 987.9
16 22.09 СЗ 12-15
{16}
н/о н/о +11.0 +7.1 77 +7 +7 993.0 988.6
17 22.09 СЗ 10-13
{15}
н/о н/о +10.3 +6.6 78 +6 +6 994.3 989.9
18 22.09 СЗ 11-13
{19}
н/о н/о +10.4 +6.2 75 +6 +6 995.3 990.9 +9.8 +11.2
19 22.09 СЗ 10-13
{15}
н/о н/о +10.1 +6.5 78 +6 +6 996.5 992.1
20 22.09 СЗ 12-18
{18}
н/о н/о +9.6 +6.0 78 +5 +5 997.4 992.9
21 22.09 СЗ 12-15
{16}
н/о н/о +9.8 +5.4 74 +5 +5 997.8 993.4
22 22.09 СЗ 12-16
{16}
н/о н/о +9.7 +4.9 72 +5 +5 998.6 994.1
23 22.09 СЗ 14-21
{21}
н/о н/о +8.9 +4.9 76 +3 +3 999.3 994.8
00 23.09 СЗ 12-15
{21}
н/о н/о +9.3 +4.7 73 +4 +4 999.8 995.3
01 23.09 СЗ 12-18
{19}
н/о н/о +8.3 +4.0 74 +3 +3 1000.6 996.1
02 23.09 СЗ 13-15
{18}
н/о н/о +9.5 +4.7 72 +4 +4 1000.8 996.3
03 23.09 СЗ 12-17
{20}
н/о н/о +9.2 +3.8 69 +4 +4 1001.4 996.9
04 23.09 СЗ 12-16
{16}
н/о н/о +9.3 +3.7 68 +4 +4 1001.8 997.3
05 23.09 СЗ 11-16
{18}
н/о н/о +7.3 +3.7 78 +2 +2 1003.0 998.5
06 23.09 СЗ 13-17
{20}
н/о н/о +7.7 +4.5 80 +2 +2 1003.4 998.9 +7.2 +10.6
07 23.09 СЗ 10-13
{18}
н/о н/о +8.0 +3.5 73 +3 +3 1003.8 999.3
08 23.09 СЗ 11-14
{18}
н/о н/о +8.5 +3.2 69 +3 +3 1004.4 999.9
09 23.09 СЗ 12-15
{15}
н/о н/о +8.7 +3.8 71 +3 +3 1004.8 1000.3
10 23.09 СЗ 11-15
{15}
н/о н/о +8.1 +3.2 71 +3 +3 1005.7 1001.2
11 23.09 СЗ 12-18
{18}
н/о н/о +7.7 +2.8 71 +2 +2 1006.4 1001.9
12 23.09 СЗ 12-17
{18}
н/о н/о +8.0 +3.9 75 +2 +2 1007.4 1002.9
13 23.09 С 14-18
{18}
н/о н/о +8.1 +2.8 69 +2 +2 1008.0 1003.5
14 23.09 СЗ 12-15
{16}
н/о н/о +8.7 +0.9 58 +4 +4 1008.5 1004.0
15 23.09 СЗ 13-18
{19}
н/о н/о +7.6 +2.1 68 +2 +2 1009.4 1004.9
16 23.09 СЗ 10-13
{18}
н/о н/о +7.8 +3.1 72 +3 +3 1009.8 1005.3
17 23.09 СЗ 13-19
{20}
н/о н/о +7.6 +1.7 66 +2 +2 1010.5 1006.0
18 23.09 СЗ 14
{20}
н/о н/о +6.7 +2.6 75 0 0 1011.3 1006.7 +9.1
19 23.09 СЗ 14-16
{17}
н/о н/о +7.9 +1.8 65 +2 +2 1011.6 1007.1
20 23.09 СЗ 11-14
{16}
н/о н/о +7.5 +2.6 71 +2 +2 1012.7 1008.1
21 23.09 СЗ 13-16
{20}
н/о н/о +7.2 +2.1 70 +1 +1 1013.0 1008.4
22 23.09 СЗ 10-14
{18}
н/о н/о +6.7 +2.2 73 +1 +1 1013.8 1009.2
23 23.09 СЗ 10-12
{18}
н/о н/о +6.6 +1.3 69 +1 +1 1014.4 1009.8
00 24.09 С 12-15
{20}
н/о н/о +6.8 +2.7 75 +1 +1 1014.9 1010.3
01 24.09 СЗ 9-15
{16}
н/о н/о +7.3 +2.0 69 +2 +2 1015.3 1010.7
02 24.09 СЗ 15-19
{19}
н/о н/о +5.5 +2.3 80 -2 -2 1016.0 1011.4
03 24.09 С 6-13
{19}
н/о н/о +6.9 +1.6 69 +3 +3 1016.9 1012.3
04 24.09 СЗ 10-14
{15}
н/о н/о +7.2 +1.5 67 +2 +2 1017.4 1012.8
05 24.09 СЗ 13-16
{17}
н/о н/о +6.5 +0.6 66 0 0 1018.2 1013.6
06 24.09 С 10-14
{19}
н/о н/о +5.1 +2.5 83 -1 -1 1019.4 1014.8 +5.0 +8.0
07 24.09 СЗ 12-17
{17}
н/о н/о +5.3 +3.3 87 -2 -2 1020.2 1015.6
08 24.09 СЗ 7-10
{17}
н/о н/о +6.8 +2.1 72 +2 +2 1020.9 1016.3
09 24.09 СЗ 6-10
{11}
н/о н/о +8.0 +2.1 66 +4 +4 1021.7 1017.1
10 24.09 СЗ 9-12
{14}
н/о н/о +8.4 +1.6 62 +4 +4 1022.6 1018.0
11 24.09 СЗ 10-12
{14}
н/о н/о +8.6 +4.1 73 +4 +4 1023.4 1018.8
12 24.09 СЗ 8-11
{17}
н/о н/о +8.3 +2.3 66 +4 +4 1024.3 1019.7
13 24.09 СЗ 6-8
{11}
н/о н/о +8.5 +2.3 65 +5 +5 1024.8 1020.2
14 24.09 З 11-15
{15}
н/о н/о +7.1 +3.2 76 +1 +1 1024.6 1020.0
15 24.09 З 7-8
{13}
н/о н/о +8.8 +2.8 66 +5 +5 1025.1 1020.5

 

Местоположение метеостанции Svinoy Fyr (Норвегия): широта 62.33 долгота 5.27 высота над уровнем моря 38 м.

В архиве по умолчанию представлена погода в Svinoy Fyr за последнюю неделю. Архивные данные за месяц целиком и за предыдущие месяцы, начиная с января 2011 года, Вы можете получить, выбрав интересующий диапазон дат из раскрывающегося списка и нажав кнопку "Ввод!".


*Определитесь, кто Вы:
робот инопланетянин человек

Внимание! Время в таблицах - всемирное. Для получения местного времени необходимо прибавить поправку, которая в Svinoy Fyr равна 1 ч.

Смотрите также архив погоды в соседних городах и на ближайших метеорологических станциях:

Погода в Bergen Lufthavn (Норвегия) (5 км)
Погода в Fiskabygd (Норвегия) (30 км)
Погода в Krakenes Fyr (Норвегия) (36 км)
Погода в Orsta-Volda Lufthavn (Норвегия) (45 км)
Погода в Alesund IV (Норвегия) (51 км)
Погода в Alesund Lufthavn (Норвегия) (51 км)
Погода в Sandane Lufthavn (Норвегия) (70 км)
Погода в Stryn-Kroken (Норвегия) (81 км)
Погода в Floro Lifthavn (Норвегия) (84 км)
Погода в Rekdal (Норвегия) (84 км)

Пояснения к столбцам:

Ветер - указаны скорость ветра в м/с - средняя за 10 мин, порывы в срок и между сроками (в фигурных скобках) и направление, откуда дует ветер: С - северный, СВ - северо-восточный, В - восточный, ЮВ - юго-восточный, Ю - южный, ЮЗ - юго-западный, З - западный, СЗ - северо-западный.
Видимость - горизонтальная дальность видимости в метрах или километрах. При видимости от 1 до 10 км при отсутствии осадков обычно наблюдается дымка, при ухудшении видимости до 1 км и менее - туман. В сухую погоду видимость может ухудшаться дымом, пылью или мглою.
Явления - указаны атмосферные явления, наблюдавшиеся в срок или в последний час перед сроком; фигурными скобками обозначены явления, наблюдавшиеся между сроками (за 1-3 часа до срока); квадратными скобками обозначены град или гололедные отложения с указанием их диаметра в мм.
Облачность - указаны через наклонную черту общая и нижняя облачность в баллах и высота нижней границы облаков в метрах; квадратными скобками обозначены формы облаков: Ci - перистые, Cs - перисто-слоистые, Cc - перисто-кучевые, Ac - высококучевые, As - высокослоистые, Sc - слоисто-кучевые, Ns - слоисто-дождевые, Cu - кучевые, Cb - кучево-дождевые. Подробнее классификацию облаков см. в Атласе облаков (PDF).
T - Температура воздуха - температура, измеренная на высоте 2 м над землей.
Td - Температура точки росы - температура, при понижении до которой содержащийся в воздухе водяной пар достигнет насыщения.
f - Относительная влажность воздуха - влажноcть воздуха, измеренная на высоте 2 м над землей.
Te - Эффективная температура - температура, которую ощущает одетый по сезону человек в тени. Характеристика душности погоды. При расчете учитывается влияние влажности воздуха и скорости ветра на теплоощущения человека.
Tes - Эффективная температура на солнце - температура, которую ощущает человек, с поправкой на солнечный нагрев. Характеристика знойности погоды. Зависит от высоты солнца над горизонтом, облачности и скорости ветра. Ночью, в пасмурную погоду, а также при ветре 12 м/с и более поправка равна нулю.
P - Атмосферное давление - приведенное к уровню моря атмосферное давление.
Po - Атмосферное давление - измеренное на уровне метеостанции атмосферное давление.
Tmin - Минимальная температура - минимум температуры воздуха на высоте 2 м над землей.
Tmax - Максимальная температура - максимум температуры воздуха на высоте 2 м над землей.
R - Количество осадков - Количество выпавших осадков за период времени, мм. При наведении курсора мыши на число - период времени, за который выпало указанное количество осадков.
R24 - Количество осадков - Количество выпавших осадков за 24 часа, мм.
S - Снежный покров - Высота снежного покрова, см. При наведении курсора мыши на число - состояние снежного покрова и степень покрытия местности в баллах.